Location: Appeville
(49.3218°N, 1.3427°W)
Time: 12:47:11
(UTC+00:00)

CZ-2C R/B - Pass Details

Date: 08 December 2019
Orbit: 640 x 705 km, 98.4° (Epoch: 19 January)

Event Time Altitude Azimuth Distance (km) Brightness Sun altitude
Rises 06:22:18 0° 156° (SSE) 3,050 7.8 -13.1°
Reaches altitude 10° 06:24:32 10° 154° (SSE) 2,146 7.0 -12.7°
Maximum altitude 06:29:12 68° 72° (ENE) 758 4.2 -12.0°
Drops below altitude 10° 06:33:58 10° 350° (N) 2,185 6.1 -11.3°
Sets 06:36:15 0° 348° (NNW) 3,111 6.8 -11.0°
